Flag for Vietnam Weather past 2 weeks in Hanoi, Vietnam

Now
81 °F

Rain. Passing clouds.


Feels Like: 87 °F
Forecast: 79 / 89 °F
Wind: 6 mph from North

Location: Ha Noi Airport


UV Index: 7 (High)

Visibility: 3 mi


Pressure: N/A

Humidity: 89%

Dew point: 77 °F

Location of HanoiLocation

Historic Weather in Hanoi

°F

Hanoi temperature yesterday

Maximum temperature yesterday: 81 °F (at 2:00 PM)
Minimum temperature yesterday: 77 °F (at 1:30 AM)
Average temperature yesterday: 79 °F

Past Weeks' High & Low Weather Summary

 TemperatureHumidityPressure
High84 °F (Apr 10, 2:30 PM)94% (Apr 9, 9:00 PM)29.95 "Hg (Apr 9, 9:00 PM)
Low73 °F (Apr 9, 9:00 PM)66% (Apr 15, 3:00 PM)29.62 "Hg (Apr 24, 3:00 PM)
Average79 °F87%29.80 "Hg
* Reported Apr 9 8:00 PM — Apr 24 8:30 PM, Hanoi, Weather by CustomWeather, © 2014

Note: Actual official high and low records may vary slightly from our data, if they occured in-between our weather recording intervals... More about our weather records

Advertising

Historic Weather Conditions — Data for Previous 24 hours

 ConditionsComfort  
Time TempWeatherWind HumidityBarometerVisibility
8:30 PM
Apr 24
81 °FThunderstorms. Passing clouds.14 mph89%29.68 "Hg3 mi
8:00 PM81 °FThundershowers. Passing clouds.14 mph89%29.68 "Hg3 mi
7:30 PM82 °FThunderstorms. Passing clouds.10 mph84%29.68 "Hg4 mi
7:00 PM82 °FPartly cloudy.9 mph89%29.68 "Hg4 mi
6:30 PM82 °FPartly cloudy.8 mph84%29.65 "Hg4 mi
6:00 PM82 °FPartly sunny.8 mph89%29.65 "Hg4 mi
5:30 PM82 °FBroken clouds.8 mph89%29.62 "Hg4 mi
5:00 PM82 °FBroken clouds.9 mph89%29.62 "Hg4 mi
4:30 PM82 °FBroken clouds.7 mph89%29.62 "Hg3 mi
4:00 PM82 °FBroken clouds.9 mph89%29.62 "Hg3 mi
3:30 PM84 °FBroken clouds.8 mph84%29.62 "Hg4 mi
3:00 PM82 °FBroken clouds.7 mph89%29.62 "Hg4 mi
2:30 PM82 °FBroken clouds.6 mph89%29.65 "Hg4 mi
2:00 PM82 °FBroken clouds.1 mph89%29.65 "Hg4 mi
1:30 PM82 °FBroken clouds.8 mph84%29.68 "Hg3 mi
1:00 PM82 °FFog.9 mph84%29.68 "Hg2 mi
12:30 PM82 °FFog.7 mph84%29.71 "Hg3 mi
12:00 PM82 °FFog.8 mph84%29.71 "Hg3 mi
11:30 AM81 °FBroken clouds.9 mph89%29.74 "Hg3 mi
11:00 AM81 °FBroken clouds.9 mph89%29.74 "Hg3 mi
10:30 AM82 °FBroken clouds.9 mph89%29.74 "Hg4 mi
10:00 AM81 °FDrizzle. Fog.9 mph89%29.74 "Hg2 mi
9:30 AM81 °FFog.9 mph89%29.74 "Hg2 mi
9:00 AM81 °FFog.8 mph89%29.74 "Hg2 mi
8:30 AM79 °FFog.9 mph94%29.74 "Hg2 mi
8:00 AM79 °FDrizzle. Fog.8 mph94%29.74 "Hg2 mi
7:30 AM79 °FDrizzle. Fog.7 mph94%29.71 "Hg1 mi
7:00 AM79 °FDrizzle. Fog.7 mph94%29.71 "Hg2 mi
6:30 AM79 °FDrizzle. Fog.9 mph94%29.71 "Hg1 mi
6:00 AM79 °FDrizzle. Fog.7 mph94%29.68 "Hg1 mi
5:30 AM79 °FDrizzle. Fog.6 mph94%29.68 "Hg1 mi
5:00 AM79 °FDrizzle. Fog.6 mph94%29.68 "Hg1 mi
4:30 AM79 °FDrizzle. Fog.7 mph94%29.65 "Hg1 mi
4:00 AM79 °FDrizzle. Fog.8 mph94%29.65 "Hg1 mi
3:30 AM79 °FDrizzle. Fog.8 mph94%29.65 "Hg2 mi
3:00 AM79 °FDrizzle. Fog.7 mph89%29.65 "Hg2 mi
2:30 AM81 °FPartly cloudy.8 mph84%29.65 "Hg4 mi
2:00 AM81 °FPartly cloudy.7 mph84%29.65 "Hg5 mi
1:30 AM81 °FPartly cloudy.9 mph84%29.65 "Hg4 mi
1:00 AM81 °FPartly cloudy.8 mph84%29.68 "Hg5 mi
12:30 AM81 °FPartly cloudy.7 mph89%29.68 "Hg4 mi
12:00 AM81 °FPartly cloudy.8 mph84%29.71 "Hg5 mi
11:30 PM
Apr 23
81 °FPartly cloudy.9 mph84%29.71 "Hg5 mi
11:00 PM81 °FPartly cloudy.9 mph84%29.71 "Hg4 mi
10:30 PM81 °FPartly cloudy.10 mph84%29.71 "Hg5 mi
10:00 PM81 °FPartly cloudy.10 mph89%29.71 "Hg5 mi
9:30 PM81 °FPartly cloudy.10 mph89%29.71 "Hg5 mi
9:00 PM81 °FPartly cloudy.9 mph89%29.68 "Hg4 mi
Weather by CustomWeather, © 2014

See weather overview